1516852801.13,8905,8.56,73898.0,-2.81,-24.41,-25.13,0,*69
1516852802.36,8906,8.56,73906.8,-2.79,-24.67,-25.35,0,*6D
1516852803.59,8907,8.56,73906.8,-2.81,-24.35,-24.77,0,*6B
1516852804.8,8908,8.56,73904.5,-2.79,-24.35,-25.13,0,*60
1516852806.0,8909,8.56,73906.5,-2.79,-24.61,-25.35,0,*64
1516852807.24,8910,8.56,73904.3,-2.81,-24.77,-25.49,0,*67
1516852808.47,8911,8.56,73910.0,-2.79,-24.87,-25.65,0,*60
1516852809.72,8912,8.56,73908.5,-2.81,-24.87,-25.65,0,*64
1516852810.99,8913,8.56,73912.8,-2.81,-24.71,-25.49,0,*62
1516852812.22,8914,8.56,73912.0,-2.79,-24.35,-25.03,0,*6C
1516852813.45,8915,8.56,73914.5,-2.79,-24.05,-24.71,0,*6A
1516852814.7,8916,8.56,73910.0,-2.79,-23.53,-24.15,0,*6F
1516852815.95,8917,8.56,73908.8,-2.79,-23.19,-23.69,0,*6C
1516852817.21,8918,8.56,73912.8,-2.79,-22.77,-23.33,0,*65
1516852818.49,8919,8.56,73914.0,-2.75,-23.19,-23.85,0,*6C
1516852819.77,8920,8.56,73914.0,-2.77,-23.19,-23.69,0,*66
1516852821.02,8921,8.56,73910.8,-2.75,-23.13,-23.65,0,*63
1516852822.25,8922,8.56,73906.8,-2.75,-22.97,-23.59,0,*62
1516852823.51,8923,8.56,73904.8,-2.69,-22.77,-23.29,0,*67
1516852824.74,8924,8.56,73900.5,-2.69,-22.83,-23.29,0,*6B
1516852825.97,8925,8.56,73908.0,-2.67,-22.83,-23.43,0,*68
1516852827.22,8926,8.56,73906.3,-2.67,-23.09,-23.53,0,*69
1516852828.45,8927,8.56,73906.3,-2.61,-23.13,-23.69,0,*6C
1516852829.7,8928,8.56,73902.3,-2.63,-23.59,-24.15,0,*63
1516852830.95,8929,8.56,73910.5,-2.65,-23.69,-24.21,0,*60
1516852832.22,8930,8.56,73902.3,-2.63,-23.53,-24.15,0,*60
1516852833.5,8931,8.56,73900.5,-2.63,-23.33,-23.85,0,*69
1516852834.78,8932,8.56,73892.5,-2.63,-23.03,-23.53,0,*62
1516852836.0,8933,8.56,73902.0,-2.61,-22.87,-23.49,0,*67
1516852837.25,8934,8.56,73904.0,-2.61,-23.03,-23.53,0,*66
1516852838.52,8935,8.56,73908.0,-2.59,-23.03,-23.69,0,*65
1516852839.8,8936,8.56,73912.3,-2.59,-23.03,-23.69,0,*66
1516852841.05,8937,8.56,73910.3,-2.59,-23.03,-23.59,0,*64
1516852842.27,8938,8.56,73908.0,-2.57,-23.13,-23.65,0,*6B
1516852843.47,8939,8.56,73906.5,-2.57,-23.09,-23.59,0,*6E
1516852844.69,8940,8.56,73906.0,-2.57,-23.29,-23.75,0,*6C
1516852845.96,8941,8.56,73904.3,-2.55,-23.03,-23.69,0,*6A
1516852847.19,8942,8.56,73914.5,-2.55,-23.09,-23.59,0,*60
1516852848.43,8943,8.56,73918.5,-2.51,-23.13,-23.69,0,*6D
1516852849.68,8944,8.56,73916.5,-2.51,-22.67,-23.29,0,*6C
1516852850.91,8945,8.56,73914.3,-2.51,-22.57,-23.13,0,*67
1516852852.16,8946,8.56,73914.8,-2.49,-22.73,-23.19,0,*61
1516852853.4,8947,8.56,73906.8,-2.49,-23.03,-23.49,0,*63
1516852854.61,8948,8.56,73896.8,-2.45,-23.43,-23.89,0,*68
1516852855.84,8949,8.56,73888.5,-2.45,-23.59,-24.21,0,*67
1516852857.04,8950,8.63,73878.5,-2.45,-24.05,-24.61,0,*65
1516852858.28,8951,8.56,73874.0,-2.45,-24.25,-24.77,0,*61
1516852859.49,8952,8.56,73878.5,-2.45,-24.31,-24.77,0,*67
1516852860.72,8953,8.56,73880.0,-2.45,-24.25,-24.93,0,*69
1516852861.95,8954,8.56,73886.3,-2.45,-24.31,-25.03,0,*63
1516852863.16,8955,8.56,73894.8,-2.49,-24.51,-25.13,0,*69
1516852864.36,8956,8.56,73896.0,-2.49,-24.51,-25.23,0,*69
1516852865.59,8957,8.56,73908.3,-2.51,-24.61,-25.13,0,*61
1516852866.83,8958,8.56,73906.8,-2.51,-24.47,-25.09,0,*61
1516852868.07,8959,8.56,73908.5,-2.51,-24.47,-25.09,0,*60
1516852869.3,8960,8.56,73902.0,-2.51,-24.51,-25.13,0,*66
1516852870.53,8961,8.56,73904.8,-2.51,-24.31,-24.93,0,*68
1516852871.76,8962,8.56,73910.0,-2.51,-24.61,-25.13,0,*67
1516852873.04,8963,8.56,73908.0,-2.51,-24.67,-25.29,0,*69
1516852874.29,8964,8.56,73906.5,-2.53,-24.87,-25.55,0,*69
1516852875.58,8965,8.56,73910.5,-2.55,-24.71,-25.29,0,*6C
1516852876.8,8966,8.56,73912.0,-2.53,-24.87,-25.35,0,*6D
1516852878.03,8967,8.56,73912.5,-2.55,-24.97,-25.49,0,*60
1516852879.27,8968,8.56,73908.8,-2.53,-24.71,-25.19,0,*64
1516852880.48,8969,8.63,73914.0,-2.53,-24.51,-24.97,0,*60
1516852881.73,8970,8.56,73904.3,-2.53,-24.41,-25.03,0,*65
1516852882.97,8971,8.56,73902.5,-2.55,-24.51,-24.97,0,*6F
1516852884.22,8972,8.56,73906.3,-2.55,-24.41,-24.97,0,*6D
1516852885.45,8973,8.56,73912.5,-2.55,-24.51,-24.97,0,*6D
1516852886.71,8974,8.56,73910.0,-2.55,-24.51,-25.03,0,*66
1516852887.97,8975,8.56,73910.0,-2.55,-24.31,-24.71,0,*65
1516852889.23,8976,8.56,73904.8,-2.55,-24.21,-24.57,0,*63
1516852890.45,8977,8.56,73908.8,-2.53,-24.05,-24.41,0,*65
1516852891.7,8978,8.56,73908.8,-2.55,-23.99,-24.35,0,*6D
1516852892.96,8979,8.56,73910.5,-2.53,-23.99,-24.21,0,*6F
1516852894.18,8980,8.56,73914.0,-2.53,-23.75,-24.15,0,*6C
1516852895.45,8981,8.56,73910.3,-2.55,-23.85,-24.15,0,*64
1516852896.69,8982,8.56,73906.5,-2.53,-23.75,-24.21,0,*69
1516852897.95,8983,8.56,73908.3,-2.53,-23.85,-24.21,0,*67
1516852899.17,8984,8.56,73914.0,-2.53,-23.99,-24.35,0,*68
1516852900.42,8985,8.56,73918.8,-2.53,-23.99,-24.41,0,*6A
1516852901.64,8986,8.56,73912.5,-2.49,-23.99,-24.35,0,*61
1516852902.89,8987,8.56,73908.8,-2.51,-23.85,-24.31,0,*60
1516852904.17,8988,8.56,73908.5,-2.51,-23.53,-23.85,0,*6C
1516852905.44,8989,8.56,73904.8,-2.51,-23.49,-23.85,0,*66
1516852906.72,8990,8.56,73896.8,-2.51,-23.85,-24.25,0,*63
1516852907.94,8991,8.56,73898.3,-2.49,-23.95,-24.31,0,*6F
1516852909.17,8992,8.56,73904.0,-2.49,-24.25,-24.61,0,*65
1516852910.4,8993,8.56,73906.5,-2.49,-24.47,-24.83,0,*6C
1516852911.63,8994,8.56,73904.8,-2.51,-24.51,-24.93,0,*64
1516852912.91,8995,8.56,73898.8,-2.51,-24.83,-25.29,0,*6A
1516852914.17,8996,8.56,73892.0,-2.49,-24.83,-25.29,0,*60
1516852915.38,8997,8.56,73898.3,-2.49,-25.09,-25.45,0,*68
1516852916.62,8998,8.56,73900.5,-2.51,-25.09,-25.49,0,*62
1516852917.84,8999,8.56,73906.8,-2.51,-24.97,-25.49,0,*65
1516852919.07,9000,8.56,73906.8,-2.51,-24.97,-25.39,0,*6A
1516852920.31,9001,8.56,73902.5,-2.51,-24.97,-25.29,0,*6A
1516852921.54,9002,8.56,73906.5,-2.53,-25.03,-25.35,0,*6A
1516852922.75,9003,8.56,73906.3,-2.53,-25.13,-25.49,0,*61
1516852924.0,9004,8.56,73910.3,-2.55,-25.13,-25.45,0,*6C
1516852925.25,9005,8.56,73910.5,-2.55,-25.13,-25.45,0,*6D
1516852926.52,9006,8.56,73910.0,-2.55,-24.87,-25.29,0,*68
1516852927.78,9007,8.56,73910.0,-2.55,-25.13,-25.55,0,*6E
1516852929.05,9008,8.56,73902.3,-2.55,-25.03,-25.45,0,*61
1516852930.29,9009,8.56,73904.5,-2.55,-25.13,-25.49,0,*6D
1516852931.55,9010,8.56,73910.0,-2.55,-25.03,-25.49,0,*64
1516852932.8,9011,8.56,73912.3,-2.59,-25.13,-25.55,0,*65
1516852934.03,9012,8.56,73910.0,-2.57,-25.09,-25.55,0,*63
1516852935.26,9013,8.56,73914.3,-2.57,-25.13,-25.55,0,*69
1516852936.49,9014,8.63,73926.3,-2.59,-24.97,-25.39,0,*67
1516852937.75,9015,8.56,73918.8,-2.57,-24.71,-25.03,0,*69
1516852938.95,9016,8.56,73912.0,-2.57,-24.61,-24.97,0,*67
1516852940.17,9017,8.56,73908.8,-2.59,-24.61,-24.93,0,*6C
1516852941.41,9018,8.56,73902.8,-2.59,-24.51,-24.93,0,*60
1516852942.66,9019,8.56,73904.3,-2.59,-24.83,-25.13,0,*67
1516852943.89,9020,8.56,73912.0,-2.59,-24.97,-25.39,0,*60
1516852945.15,9021,8.56,73910.8,-2.59,-24.67,-25.09,0,*6D
1516852946.38,9022,8.56,73914.0,-2.59,-24.61,-24.93,0,*6A
1516852947.63,9023,8.56,73914.0,-2.59,-24.61,-24.83,0,*6A
1516852948.88,9024,8.56,73908.5,-2.59,-23.99,-24.31,0,*64
1516852950.08,9025,8.56,73904.8,-2.57,-23.89,-24.05,0,*6D
1516852951.33,9026,8.56,73910.5,-2.59,-23.79,-24.11,0,*6A
1516852952.6,9027,8.56,73908.5,-2.59,-23.95,-24.15,0,*6D
1516852953.82,9028,8.56,73908.5,-2.57,-23.75,-23.95,0,*6D
1516852955.02,9029,8.63,73914.3,-2.57,-23.79,-24.05,0,*6E
1516852956.25,9030,8.56,73908.8,-2.57,-23.65,-24.05,0,*6B
1516852957.47,9031,8.56,73908.8,-2.55,-23.59,-23.89,0,*64
1516852958.69,9032,8.56,73908.0,-2.53,-23.85,-24.05,0,*63
1516852959.94,9033,8.56,73910.5,-2.53,-23.85,-23.99,0,*60
1516852961.19,9034,8.56,73908.0,-2.53,-23.85,-23.99,0,*67
1516852962.46,9035,8.56,73910.8,-2.55,-23.85,-23.99,0,*60
1516852963.71,9036,8.56,73908.8,-2.53,-23.85,-24.15,0,*66
1516852964.91,9037,8.56,73912.8,-2.53,-24.05,-24.35,0,*6A
1516852966.13,9038,8.56,73914.3,-2.53,-24.15,-24.35,0,*64
1516852967.36,9039,8.63,73918.0,-2.53,-24.31,-24.41,0,*60
1516852968.61,9040,8.56,73914.0,-2.51,-24.47,-24.67,0,*69
1516852969.86,9041,8.56,73912.0,-2.51,-24.61,-24.83,0,*66
1516852971.09,9042,8.56,73910.0,-2.51,-24.31,-24.51,0,*6F
1516852972.34,9043,8.56,73908.5,-2.51,-24.35,-24.67,0,*6F
1516852973.57,9044,8.63,73912.3,-2.51,-24.31,-24.61,0,*6A
1516852974.77,9045,8.56,73908.3,-2.49,-24.31,-24.35,0,*63
1516852976.0,9046,8.56,73906.5,-2.51,-24.31,-24.35,0,*69
1516852977.21,9047,8.56,73906.3,-2.49,-24.31,-24.51,0,*63
1516852978.43,9048,8.56,73908.3,-2.49,-24.35,-24.67,0,*6D
1516852979.63,9049,8.56,73906.8,-2.49,-24.51,-24.77,0,*6F
1516852980.87,9050,8.56,73906.3,-2.51,-24.51,-24.77,0,*6E
1516852982.12,9051,8.56,73908.0,-2.51,-24.47,-24.67,0,*69
1516852983.35,9052,8.63,73910.8,-2.51,-24.51,-24.77,0,*6C
1516852984.63,9053,8.56,73908.5,-2.51,-24.67,-24.83,0,*63
1516852985.83,9054,8.56,73900.5,-2.49,-24.31,-24.61,0,*62
1516852987.06,9055,8.63,73900.8,-2.51,-24.35,-24.61,0,*6E
1516852988.26,9056,8.56,73902.5,-2.49,-24.77,-24.97,0,*6B
1516852989.49,9057,8.56,73900.8,-2.49,-24.83,-25.09,0,*67
1516852990.71,9058,8.56,73910.0,-2.51,-24.97,-25.23,0,*6C
1516852991.93,9059,8.56,73920.3,-2.51,-24.93,-25.09,0,*61
1516852993.15,9060,8.56,73918.3,-2.49,-24.61,-24.83,0,*6C
1516852994.35,9061,8.56,73912.8,-2.49,-24.61,-24.77,0,*66
1516852995.56,9062,8.56,73914.8,-2.49,-24.47,-24.61,0,*66
1516852996.76,9063,8.56,73906.0,-2.49,-24.47,-24.51,0,*64
1516852998.02,9064,8.56,73910.3,-2.51,-24.51,-24.67,0,*68
1516852999.21,9065,8.56,73910.0,-2.49,-24.93,-25.13,0,*6C
1516853000.43,9066,8.56,73910.3,-2.51,-25.23,-25.23,0,*6F
1516853001.65,9067,8.56,73912.0,-2.51,-24.97,-25.23,0,*60
1516853002.87,9068,8.56,73908.5,-2.51,-24.77,-24.97,0,*6F
1516853004.1,9069,8.56,73914.8,-2.51,-24.77,-24.93,0,*6A
1516853005.32,9070,8.63,73912.0,-2.51,-24.77,-24.93,0,*62
1516853006.56,9071,8.56,73910.0,-2.51,-24.51,-24.77,0,*6D
1516853007.79,9072,8.56,73912.3,-2.51,-24.47,-24.61,0,*6E
1516853009.04,9073,8.56,73912.3,-2.51,-24.51,-24.67,0,*6E
1516853010.27,9074,8.56,73906.5,-2.51,-24.51,-24.61,0,*6F
1516853011.52,9075,8.56,73900.5,-2.51,-24.51,-24.67,0,*68
1516853012.78,9076,8.56,73906.5,-2.51,-24.51,-24.67,0,*6B
1516853014.03,9077,8.56,73900.8,-2.51,-24.47,-24.67,0,*6D
1516853015.25,9078,8.56,73896.8,-2.51,-24.61,-24.77,0,*67
1516853016.51,9079,8.56,73896.0,-2.51,-24.83,-24.97,0,*64
1516853017.73,9080,8.56,73900.5,-2.51,-25.09,-25.13,0,*6C
1516853018.95,9081,8.56,73902.0,-2.51,-25.09,-25.23,0,*6E
1516853020.18,9082,8.56,73902.8,-2.51,-25.09,-25.09,0,*65
1516853021.4,9083,8.56,73906.0,-2.51,-25.13,-25.23,0,*67
1516853022.62,9084,8.56,73902.0,-2.51,-24.97,-25.23,0,*6D
1516853023.88,9085,8.56,73906.3,-2.51,-25.13,-25.29,0,*6B
1516853025.1,9086,8.56,73906.3,-2.51,-25.09,-25.23,0,*69
1516853026.3,9087,8.56,73906.8,-2.53,-25.13,-25.13,0,*62
1516853027.5,9088,8.56,73900.3,-2.53,-25.19,-25.19,0,*6D
1516853028.72,9089,8.56,73896.8,-2.53,-25.19,-25.29,0,*6F
1516853029.97,9090,8.56,73898.0,-2.55,-25.19,-25.29,0,*61
1516853031.19,9091,8.56,73896.0,-2.55,-25.19,-25.19,0,*63
1516853032.41,9092,8.56,73894.0,-2.55,-25.19,-25.13,0,*6A
1516853033.66,9093,8.56,73884.3,-2.55,-25.29,-25.19,0,*62
1516853034.88,9094,8.56,73898.5,-2.55,-25.19,-25.13,0,*6C
1516853036.13,9095,8.56,73902.8,-2.55,-25.13,-25.03,0,*66
1516853037.38,9096,8.56,73902.0,-2.55,-24.97,-25.03,0,*68
1516853038.58,9097,8.56,73908.5,-2.57,-24.77,-24.77,0,*67
1516853039.78,9098,8.63,73908.5,-2.57,-25.09,-25.09,0,*68
1516853040.98,9099,8.56,73908.3,-2.57,-25.09,-25.09,0,*69
1516853042.21,9100,8.56,73906.5,-2.57,-24.87,-25.09,0,*6F
1516853043.41,9101,8.56,73914.3,-2.57,-25.09,-25.09,0,*69
1516853044.6,9102,8.56,73918.8,-2.57,-25.23,-25.19,0,*63
1516853045.82,9103,8.56,73916.5,-2.57,-25.19,-25.03,0,*60
1516853047.03,9104,8.56,73916.0,-2.57,-24.93,-25.03,0,*64
1516853048.26,9105,8.56,73920.5,-2.59,-24.77,-24.93,0,*69
1516853049.53,9106,8.56,73916.5,-2.59,-24.15,-24.11,0,*64
1516853050.75,9107,8.56,73920.3,-2.57,-24.05,-23.95,0,*61
1516853052.0,9108,8.56,73918.8,-2.57,-24.21,-24.11,0,*63
1516853053.24,9109,8.56,73918.8,-2.57,-23.95,-23.95,0,*61
1516853054.47,9110,8.56,73908.0,-2.55,-24.05,-23.89,0,*68
1516853055.72,9111,8.56,73902.0,-2.55,-23.89,-23.85,0,*66
1516853056.93,9112,8.56,73896.8,-2.53,-23.75,-23.75,0,*6F
1516853058.15,9113,8.56,73904.5,-2.53,-23.59,-23.53,0,*64
1516853059.38,9114,8.56,73906.5,-2.53,-23.75,-23.85,0,*66
1516853060.61,9115,8.56,73890.5,-2.53,-23.89,-23.85,0,*64
1516853061.89,9116,8.56,73886.5,-2.51,-23.99,-23.85,0,*64
1516853063.12,9117,8.56,73890.5,-2.51,-24.35,-24.31,0,*6C
1516853064.35,9118,8.56,73894.5,-2.51,-24.51,-24.51,0,*67
1516853065.55,9119,8.56,73894.5,-2.49,-24.47,-24.35,0,*6A
1516853066.78,9120,8.56,73904.0,-2.51,-24.51,-24.35,0,*6E
1516853068.02,9121,8.56,73900.5,-2.49,-24.67,-24.67,0,*64
1516853069.25,9122,8.56,73900.0,-2.51,-24.61,-24.61,0,*6E
1516853070.5,9123,8.56,73896.8,-2.51,-24.83,-24.77,0,*64
1516853071.75,9124,8.56,73894.8,-2.49,-24.83,-24.83,0,*61
1516853072.97,9125,8.56,73870.5,-2.51,-25.09,-24.97,0,*6F
1516853074.19,9126,8.56,73874.0,-2.53,-24.97,-25.03,0,*64
1516853075.39,9127,8.56,73890.5,-2.53,-24.97,-24.97,0,*69
1516853076.64,9128,8.56,73896.0,-2.53,-25.03,-25.03,0,*66
1516853077.84,9129,8.56,73898.5,-2.53,-25.19,-25.13,0,*6D
1516853079.04,9130,8.56,73896.0,-2.53,-25.19,-25.19,0,*6F
1516853080.23,9131,8.56,73902.0,-2.53,-25.35,-25.19,0,*60
1516853081.43,9132,8.56,73910.0,-2.53,-25.19,-25.13,0,*67
1516853082.68,9133,8.56,73912.5,-2.55,-24.97,-24.87,0,*6B
1516853083.95,9134,8.56,73908.3,-2.55,-25.03,-25.03,0,*6D
1516853085.2,9135,8.56,73914.8,-2.55,-25.29,-25.13,0,*65
1516853086.45,9136,8.56,73912.5,-2.53,-25.03,-25.03,0,*69
1516853087.68,9137,8.56,73916.3,-2.55,-24.51,-24.35,0,*6C
1516853088.96,9138,8.56,73920.0,-2.55,-24.41,-24.15,0,*60
1516853090.17,9139,8.56,73912.8,-2.53,-24.51,-24.31,0,*60
1516853091.45,9140,8.63,73918.0,-2.55,-24.71,-24.71,0,*6E
1516853092.73,9141,8.56,73916.0,-2.55,-24.83,-24.83,0,*6F
1516853093.99,9142,8.56,73912.5,-2.53,-24.83,-24.71,0,*67
1516853095.24,9143,8.56,73906.0,-2.55,-25.13,-25.03,0,*6C
1516853096.46,9144,8.56,73898.8,-2.55,-25.19,-25.19,0,*6A
1516853097.68,9145,8.63,73896.0,-2.55,-25.19,-25.13,0,*61
1516853098.93,9146,8.56,73898.5,-2.55,-25.19,-25.03,0,*63
1516853100.18,9147,8.56,73898.3,-2.55,-25.29,-25.13,0,*60
1516853101.38,9148,8.56,73900.0,-2.53,-25.35,-25.19,0,*6E
1516853102.6,9149,8.63,73898.3,-2.55,-25.19,-25.13,0,*6D
1516853103.8,9150,8.56,73896.0,-2.57,-25.39,-25.19,0,*6F
1516853105.07,9151,8.56,73900.0,-2.59,-25.45,-25.29,0,*68
1516853106.32,9152,8.56,73902.5,-2.59,-25.61,-25.45,0,*67
1516853107.57,9153,8.56,73902.0,-2.59,-25.61,-25.45,0,*66
1516853108.8,9154,8.56,73896.3,-2.57,-25.55,-25.35,0,*6F
1516853110.06,9155,8.56,73898.5,-2.59,-25.55,-25.39,0,*6C
1516853111.31,9156,8.63,73910.5,-2.59,-25.61,-25.45,0,*63
1516853112.57,9157,8.56,73906.3,-2.59,-25.55,-25.39,0,*6E
1516853113.79,9158,8.63,73908.0,-2.61,-25.45,-25.23,0,*60
1516853114.99,9159,8.56,73918.5,-2.61,-25.39,-25.13,0,*69
1516853116.19,9160,8.56,73920.3,-2.61,-25.23,-25.09,0,*63
1516853117.44,9161,8.56,73920.0,-2.63,-25.19,-25.03,0,*63
1516853118.64,9162,8.63,73922.0,-2.61,-25.13,-24.97,0,*64
1516853119.92,9163,8.56,73916.5,-2.63,-25.29,-25.03,0,*62
1516853121.14,9164,8.63,73922.3,-2.63,-25.19,-24.97,0,*6A
1516853122.39,9165,8.56,73918.0,-2.63,-25.13,-24.83,0,*64
1516853123.65,9166,8.56,73918.5,-2.63,-24.97,-24.71,0,*67
1516853124.9,9167,8.56,73916.8,-2.63,-24.83,-24.57,0,*67
1516853126.1,9168,8.56,73916.3,-2.61,-24.77,-24.51,0,*67
1516853127.37,9169,8.56,73912.5,-2.63,-24.71,-24.47,0,*65
1516853128.62,9170,8.56,73910.3,-2.63,-24.51,-24.15,0,*68
1516853129.85,9171,8.56,73902.5,-2.61,-24.51,-24.15,0,*6B
1516853131.1,9172,8.63,73914.3,-2.61,-24.25,-23.95,0,*64
1516853132.35,9173,8.56,73908.0,-2.61,-23.85,-23.65,0,*67
1516853133.57,9174,8.56,73906.5,-2.61,-24.11,-23.79,0,*67
1516853134.8,9175,8.56,73904.5,-2.57,-24.11,-23.75,0,*6F
1516853136.08,9176,8.56,73902.5,-2.59,-23.95,-23.53,0,*6D
1516853137.3,9177,8.56,73900.0,-2.57,-23.89,-23.49,0,*64
1516853138.5,9178,8.56,73892.5,-2.57,-23.75,-23.39,0,*6F
1516853139.78,9179,8.56,73902.0,-2.55,-23.53,-23.19,0,*6A
1516853141.04,9180,8.56,73888.3,-2.55,-23.59,-23.23,0,*6F
1516853142.29,9181,8.56,73880.8,-2.55,-23.59,-23.23,0,*6E
1516853143.54,9182,8.63,73876.3,-2.53,-23.85,-23.53,0,*6D
1516853144.75,9183,8.63,73894.3,-2.53,-23.59,-23.43,0,*6C
1516853145.98,9184,8.56,73900.8,-2.53,-23.75,-23.53,0,*64
1516853147.25,9185,8.56,73906.3,-2.51,-23.53,-23.33,0,*65
1516853148.52,9186,8.56,73904.8,-2.51,-23.69,-23.33,0,*6F
1516853149.77,9187,8.56,73900.5,-2.49,-23.53,-23.19,0,*66
1516853151.03,9188,8.56,73908.3,-2.49,-23.53,-23.19,0,*69
1516853152.28,9189,8.56,73906.3,-2.49,-23.65,-23.19,0,*6D
1516853153.5,9190,8.56,73896.0,-2.45,-23.89,-23.49,0,*6E
1516853154.73,9191,8.56,73888.5,-2.45,-24.11,-23.75,0,*66
1516853155.98,9192,8.56,73880.3,-2.45,-24.41,-23.95,0,*6E
1516853157.22,9193,8.63,73886.8,-2.43,-24.47,-24.25,0,*63
1516853158.42,9194,8.63,73880.8,-2.45,-24.57,-24.31,0,*66
1516853159.65,9195,8.63,73882.5,-2.45,-24.61,-24.25,0,*67
1516853160.88,9196,8.56,73876.3,-2.45,-24.71,-24.47,0,*61
1516853162.09,9197,8.56,73896.8,-2.45,-24.77,-24.47,0,*66
1516853163.28,9198,8.56,73894.8,-2.49,-24.77,-24.35,0,*60
1516853164.49,9199,8.56,73896.8,-2.45,-24.77,-24.61,0,*6C
1516853165.69,9200,8.56,73902.3,-2.45,-24.61,-24.47,0,*6C
1516853166.93,9201,8.56,73898.8,-2.45,-24.47,-24.21,0,*69
1516853168.18,9202,8.63,73900.0,-2.45,-24.41,-23.95,0,*64
1516853169.4,9203,8.56,73900.3,-2.45,-24.47,-24.11,0,*68
1516853170.63,9204,8.56,73894.3,-2.49,-24.51,-24.11,0,*64
1516853171.86,9205,8.56,73894.8,-2.45,-24.25,-23.89,0,*6C
1516853173.08,9206,8.56,73896.3,-2.45,-23.95,-23.59,0,*6E
1516853174.31,9207,8.56,73892.8,-2.45,-23.75,-23.33,0,*6D
1516853175.56,9208,8.56,73890.5,-2.43,-23.65,-23.29,0,*6E
1516853176.82,9209,8.63,73890.3,-2.43,-23.95,-23.49,0,*66
1516853178.05,9210,8.56,73894.0,-2.43,-23.79,-23.33,0,*61
1516853179.26,9211,8.56,73896.3,-2.43,-23.89,-23.43,0,*68
1516853180.52,9212,8.63,73886.3,-2.41,-23.85,-23.43,0,*65
1516853181.8,9213,8.63,73884.5,-2.41,-23.85,-23.53,0,*65
1516853183.01,9214,8.56,73888.8,-2.39,-23.43,-23.09,0,*68
1516853184.24,9215,8.63,73898.3,-2.39,-23.99,-23.59,0,*6B
1516853185.51,9216,8.56,73890.5,-2.39,-24.21,-23.85,0,*6D
1516853186.72,9217,8.56,73880.3,-2.39,-24.35,-23.89,0,*65
1516853188.01,9218,8.56,73872.8,-2.41,-24.25,-23.85,0,*68
1516853189.24,9219,8.56,73878.3,-2.39,-24.41,-24.05,0,*6B
1516853190.53,9220,8.56,73874.3,-2.37,-24.67,-24.21,0,*6D
1516853191.81,9221,8.63,73876.0,-2.41,-24.83,-24.41,0,*61
1516853193.07,9222,8.63,73878.8,-2.39,-24.83,-24.41,0,*6D
1516853194.3,9223,8.56,73876.0,-2.41,-24.97,-24.57,0,*61
1516853195.55,9224,8.56,73890.5,-2.41,-25.13,-24.71,0,*6F
1516853196.81,9225,8.56,73900.3,-2.41,-25.13,-24.71,0,*6E
1516853198.03,9226,8.56,73906.5,-2.41,-24.97,-24.57,0,*64
1516853199.31,9227,8.63,73908.0,-2.41,-24.83,-24.41,0,*67
1516853200.57,9228,8.56,73898.8,-2.41,-24.51,-23.99,0,*65
1516853201.83,9229,8.56,73898.8,-2.41,-24.35,-23.85,0,*6B
1516853203.09,9230,8.63,73900.3,-2.41,-24.21,-23.75,0,*69
1516853204.35,9231,8.63,73906.5,-2.41,-24.25,-23.75,0,*6C
1516853205.6,9232,8.56,73896.5,-2.41,-24.05,-23.53,0,*69
1516853206.88,9233,8.56,73890.3,-2.41,-23.99,-23.53,0,*6A
1516853208.13,9234,8.56,73890.8,-2.41,-23.99,-23.59,0,*67
1516853209.34,9235,8.63,73894.8,-2.39,-24.05,-23.59,0,*6B
1516853210.59,9236,8.56,73894.8,-2.41,-24.05,-23.69,0,*64
1516853211.87,9237,8.63,73898.5,-2.37,-23.99,-23.65,0,*6A
1516853213.15,9238,8.63,73896.0,-2.37,-24.21,-23.69,0,*6D
1516853214.4,9239,8.56,73894.3,-2.35,-24.15,-23.65,0,*65
1516853215.66,9240,8.56,73890.3,-2.37,-24.35,-23.85,0,*65
1516853216.89,9241,8.56,73888.5,-2.35,-24.15,-23.75,0,*6B
1516853218.13,9242,8.56,73890.3,-2.37,-24.31,-23.79,0,*60
1516853219.36,9243,8.56,73884.5,-2.35,-24.47,-24.11,0,*6B
1516853220.62,9244,8.56,73886.3,-2.37,-24.61,-24.21,0,*69
1516853221.85,9245,8.63,73894.0,-2.37,-24.77,-24.35,0,*6A
1516853223.06,9246,8.56,73880.0,-2.35,-24.57,-24.05,0,*6A
1516853224.33,9247,8.56,73882.8,-2.37,-24.67,-24.15,0,*6B
1516853225.59,9248,8.56,73892.5,-2.37,-24.61,-24.15,0,*62
1516853226.85,9249,8.56,73896.5,-2.37,-24.83,-24.47,0,*68
1516853228.11,9250,8.56,73896.3,-2.37,-24.77,-24.21,0,*6B
1516853229.3,9251,8.63,73902.5,-2.35,-24.93,-24.51,0,*65
1516853230.56,9252,8.56,73896.0,-2.37,-24.51,-23.99,0,*69
1516853231.82,9253,8.56,73888.0,-2.37,-24.61,-24.15,0,*68
1516853233.07,9254,8.56,73888.5,-2.39,-24.87,-24.41,0,*68
1516853234.33,9255,8.56,73888.3,-2.39,-24.87,-24.41,0,*69
1516853235.59,9256,8.56,73892.5,-2.39,-24.87,-24.25,0,*68
1516853236.79,9257,8.56,73884.8,-2.39,-24.97,-24.57,0,*6D
1516853238.01,9258,8.56,73908.0,-2.39,-25.19,-24.67,0,*66
1516853239.27,9259,8.56,73898.8,-2.39,-25.03,-24.67,0,*6C
1516853240.56,9260,8.56,73896.0,-2.41,-24.71,-24.21,0,*6F
1516853241.82,9261,8.56,73896.3,-2.39,-24.83,-24.25,0,*68
1516853243.07,9262,8.56,73898.5,-2.41,-25.03,-24.57,0,*68
1516853244.3,9263,8.63,73900.3,-2.41,-25.13,-24.57,0,*68
1516853245.52,9264,8.56,73896.3,-2.41,-24.97,-24.51,0,*64
1516853246.77,9265,8.56,73892.0,-2.41,-24.87,-24.51,0,*64
1516853248.0,9266,8.56,73890.8,-2.41,-24.97,-24.51,0,*66
1516853249.25,9267,8.56,73892.5,-2.41,-25.13,-24.71,0,*68
1516853250.51,9268,8.56,73888.5,-2.41,-25.35,-24.71,0,*63
1516853251.75,9269,8.56,73896.5,-2.41,-25.35,-24.83,0,*6F
1516853252.98,9270,8.56,73894.5,-2.43,-25.39,-24.87,0,*6D
1516853254.18,9271,8.56,73892.5,-2.45,-25.09,-24.57,0,*64
1516853255.38,9272,8.56,73896.5,-2.45,-25.19,-24.77,0,*64
1516853256.58,9273,8.56,73900.0,-2.43,-25.35,-24.77,0,*6D
1516853257.8,9274,8.56,73900.5,-2.45,-25.39,-24.87,0,*6F
1516853259.0,9275,8.56,73906.0,-2.43,-25.39,-24.93,0,*6D
1516853260.2,9276,8.56,73900.3,-2.45,-25.39,-24.93,0,*68
1516853261.4,9277,8.56,73898.0,-2.45,-25.39,-24.93,0,*69
1516853262.62,9278,8.56,73884.8,-2.49,-25.39,-24.83,0,*6B
1516853263.81,9279,8.56,73876.8,-2.49,-25.23,-24.77,0,*6A
1516853265.01,9280,8.56,73876.8,-2.49,-25.23,-24.77,0,*6C
1516853266.23,9281,8.56,73876.3,-2.49,-25.39,-24.83,0,*6D
1516853267.45,9282,8.56,73880.5,-2.51,-25.39,-24.77,0,*6C
1516853268.67,9283,8.56,73886.3,-2.49,-25.45,-24.97,0,*61
1516853269.89,9284,8.56,73896.5,-2.51,-25.23,-24.77,0,*61
1516853271.11,9285,8.56,73892.3,-2.51,-24.97,-24.51,0,*6A
1516853272.33,9286,8.56,73900.0,-2.51,-25.13,-24.51,0,*64
1516853273.56,9287,8.56,73892.0,-2.51,-25.39,-24.77,0,*69
1516853274.78,9288,8.56,73890.8,-2.51,-25.39,-24.77,0,*66
1516853276.0,9289,8.56,73906.3,-2.51,-25.23,-24.61,0,*6B
1516853277.24,9290,8.56,73906.3,-2.51,-25.23,-24.67,0,*65
1516853278.51,9291,8.56,73914.8,-2.51,-25.29,-24.67,0,*6E
1516853279.73,9292,8.56,73912.3,-2.55,-25.13,-24.35,0,*67
1516853280.95,9293,8.56,73912.5,-2.53,-25.03,-24.35,0,*61
1516853282.2,9294,8.56,73900.3,-2.55,-25.03,-24.31,0,*64
1516853283.42,9295,8.56,73902.5,-2.55,-25.19,-24.57,0,*6E
1516853284.62,9296,8.63,73910.5,-2.53,-24.97,-24.31,0,*6C
1516853285.84,9297,8.56,73904.3,-2.53,-24.35,-23.69,0,*6F
1516853287.05,9298,8.56,73902.8,-2.53,-24.51,-23.89,0,*6C
1516853288.3,9299,8.63,73902.5,-2.53,-24.87,-24.21,0,*63
1516853289.5,9300,8.63,73904.3,-2.53,-24.97,-24.31,0,*62
1516853290.72,9301,8.56,73904.3,-2.53,-24.87,-24.31,0,*62
1516853291.97,9302,8.56,73906.0,-2.53,-24.83,-24.15,0,*63
1516853293.18,9303,8.63,73908.5,-2.53,-24.35,-23.75,0,*6E
1516853294.4,9304,8.56,73910.3,-2.53,-23.99,-23.39,0,*60
1516853295.66,9305,8.63,73914.5,-2.53,-24.21,-23.53,0,*69
1516853296.9,9306,8.56,73910.3,-2.51,-24.15,-23.39,0,*63
1516853298.16,9307,8.56,73904.0,-2.51,-24.31,-23.49,0,*63
1516853299.36,9308,8.56,73902.5,-2.49,-24.47,-23.79,0,*67
1516853300.59,9309,8.56,73900.3,-2.49,-24.61,-23.85,0,*61
1516853301.83,9310,8.56,73906.0,-2.49,-24.67,-23.99,0,*62
1516853303.1,9311,8.63,73900.0,-2.51,-24.83,-24.11,0,*67
1516853304.35,9312,8.56,73900.5,-2.49,-24.83,-23.99,0,*6A
1516853305.57,9313,8.56,73902.0,-2.45,-24.93,-24.25,0,*66
1516853306.79,9314,8.63,73912.3,-2.51,-25.09,-24.31,0,*63
1516853308.06,9315,8.56,73918.0,-2.51,-24.83,-24.11,0,*63
1516853309.32,9316,8.56,73918.3,-2.51,-24.51,-23.85,0,*65
1516853310.54,9317,8.63,73914.8,-2.49,-24.47,-23.69,0,*68
1516853311.77,9318,8.63,73912.8,-2.51,-24.35,-23.79,0,*6A